Home   Weather   Dausa   Past weeks

Flag for India Past Weather in Dausa, Rajasthan, India — Yesterday and Last 2 Weeks

Now
75 °F

Clear.


Feels Like: 78 °F
Forecast: 49 / 79 °F
Wind: 5 mph from Southwest

Location: Jaipur / Sanganer

Current Time: Dec 8, 2016 at 11:44:56 am

Latest Report: Dec 8, 2016 at 11:00 am


Visibility: 1 mi

Pressure: 30.09 "Hg

Humidity: 44%

Dew Point: 52 °F

Location of DausaLocation

Past Weather in Dausa — Graph

°F

Dausa Temperature Yesterday

Maximum temperature yesterday: 84 °F (at 3:00 pm)
Minimum temperature yesterday: 54 °F (at 6:00 am)
Average temperature yesterday: 68 °F

High & Low Weather Summary for the Past Weeks

 TemperatureHumidityPressure
High88 °F (Nov 29, 2:30 pm)100% (Dec 5, 12:00 am)30.24 "Hg (Dec 5, 12:00 am)
Low52 °F (Dec 4, 6:30 am)14% (Nov 24, 3:30 pm)29.92 "Hg (Nov 23, 3:30 pm)
Average71 °F40%30.05 "Hg
* Reported Nov 23 10:30 am — Dec 8 10:30 am, Dausa, Weather by CustomWeather, © 2016

Note: Actual official high and low records may vary slightly from our data, if they occured in-between our weather recording intervals... More about our weather records

Advertising

Dausa Weather History for the Previous 24 Hours

Scroll right to see more
 ConditionsComfort  
Time TempWeatherWind HumidityBarometerVisibility
10:30 am
Thu, Dec 8
73 °FClear.3 mph50%30.09 "Hg1 mi
10:00 am72 °FHaze.5 mph50%30.09 "Hg1 mi
9:30 am70 °FSmoke.1 mph57%30.09 "Hg1 mi
7:00 am54 °FFog.No wind88%30.07 "Hg1 mi
6:30 am55 °FFog.No wind88%30.04 "Hg1 mi
6:00 am54 °FFog.1 mph94%30.04 "Hg1 mi
5:30 am55 °FFog.No wind88%30.04 "Hg1 mi
5:00 am55 °FClear.No wind88%30.01 "Hg1 mi
11:00 pm
Wed, Dec 7
61 °FClear.No wind63%30.07 "Hg1 mi
10:00 pm63 °FClear.No wind56%30.07 "Hg1 mi
9:30 pm66 °FClear.3 mph49%30.07 "Hg1 mi
8:30 pm68 °FClear.5 mph43%30.07 "Hg1 mi
8:00 pm66 °FClear.No wind46%30.04 "Hg1 mi
7:30 pm68 °FClear.No wind43%30.04 "Hg1 mi
7:00 pm70 °FClear.No wind43%30.04 "Hg1 mi
6:30 pm70 °FClear.No wind43%30.04 "Hg1 mi
6:00 pm72 °FClear.No wind38%30.01 "Hg1 mi
5:30 pm77 °FHaze.No wind30%30.01 "Hg2 mi
5:00 pm81 °FHaze.3 mph24%30.01 "Hg2 mi
4:00 pm84 °FHaze.6 mph18%30.01 "Hg2 mi
3:30 pm84 °FHaze.6 mph18%30.01 "Hg2 mi
3:00 pm84 °FHaze.6 mph16%30.01 "Hg2 mi
2:00 pm82 °FHaze.5 mph20%30.04 "Hg2 mi
1:30 pm82 °FHaze.6 mph23%30.04 "Hg2 mi
1:00 pm81 °FHaze.6 mph26%30.07 "Hg2 mi
12:30 pm79 °FHaze.5 mph28%30.07 "Hg2 mi
12:00 pm79 °FHaze.6 mph28%30.09 "Hg2 mi
11:30 am77 °FHaze.5 mph30%30.12 "Hg2 mi
11:00 am75 °FHaze.5 mph34%30.12 "Hg2 mi
Weather by CustomWeather, © 2016

See weather overviewHow to use our weather pages